Regional Weather Roundup
Issued by NWS Midland/Odessa, TX

Skip options and go directly to product.
Home | Oldest Version | Previous Version | Current Version | All | Text Only | Save Text | Print | Product List | Glossary On

Skip product version selection by date and time.   
761
ASUS44 KMAF 011410
RWRMAF
MIDLAND AREA WEATHER ROUNDUP
NATIONAL WEATHER SERVICE MIDLAND TX
900 AM CDT TUE SEP 01 2015

...IN SOUTHWEST TEXAS AND SOUTHEAST NEW MEXICO...

CITY           SKY/WX    TMP DP  RH WIND       PRES   REMARKS
ALPINE         SUNNY     71  53  52 W5        30.18R
ANDREWS        FAIR      71  61  69 S10       30.08R
ARTESIA        SUNNY     72  55  56 SE10      30.07R
BIG SPRING     SUNNY     70  60  71 SE14      30.09S
CARLSBAD       SUNNY     73  55  53 S7        30.05R
DRYDEN           N/A     72  64  76 S8        30.04R
FORT STOCKTON  SUNNY     72  61  68 SE12      30.05R
GUAD PASS      SUNNY     73  41  31 SW7       30.18R
HOBBS          SUNNY     68  59  73 SE10      30.10R
MARFA          SUNNY     64  54  68 CALM      30.17R
MIDLAND AIRPK  SUNNY     73  62  66 S8        30.07S
MIDLAND INTL   SUNNY     72  61  68 S12       30.06S
ODESSA         NOT AVBL
PECOS          SUNNY     73  59  61 E9        30.02R
PRESIDIO       NOT AVBL
SEMINOLE       SUNNY     69  57  66 CALM      30.10R
SNYDER         SUNNY     72  63  71 S8        30.07S
WINK           SUNNY     73  61  65 SE14      30.03R
$$
...OTHER STATIONS IN TEXAS...

CITY           SKY/WX    TMP DP  RH WIND       PRES   REMARKS
ABILENE        SUNNY     76  67  73 SW14      30.05R
AMARILLO       SUNNY     69  55  60 S15       30.08R
AUSTIN         PTSUNNY   75  72  90 SE7       30.05R
BROWNSVILLE    MOSUNNY   79  75  87 E8        29.97R
CORPUS CHRISTI PTSUNNY   78  73  84 SE12      30.00R
DALLAS FTW     MOSUNNY   79  69  71 S7        30.03R
DEL RIO        MOSUNNY   75  70  84 E9        30.00S
EL PASO        MOSUNNY   77  48  35 NW3       30.06R
HOUSTON INT    PTSUNNY   76  74  93 CALM      30.04R
LUBBOCK        MOSUNNY   71  58  63 S9        30.08S
SAN ANGELO     SUNNY     74  66  76 S8        30.05R
SAN ANTONIO    PTSUNNY   79  72  79 SE10      30.05R
WACO           SUNNY     77  70  79 S8        30.06R
WICHITA FALLS  NOT AVBL
$$
...OTHER LOCATIONS IN NEW MEXICO...

CITY           SKY/WX    TMP DP  RH WIND       PRES   REMARKS
ALAMAGORDO     MOSUNNY   72  50  46 SE3       30.09R
ALBUQUERQUE    MOSUNNY   70  48  45 S3        30.20R
CANNON AFB     SUNNY     71  55  58 S12       30.10S
CLOVIS         SUNNY     72  54  53 S16       30.12R
HOLLOMAN AFB   MOSUNNY   71  51  50 SE2       30.06R
ROSWELL        SUNNY     71  53  52 S5        30.07R
RUIDOSO        SUNNY     64  48  55 MISG      30.29R
SANTA FE       MOSUNNY   67  48  50 NW5       30.24R
TRUTH OR CONSE MOSUNNY   72  51  47 W6        30.14R
TUCUMCARI      SUNNY     72  51  47 SW8       30.06R
$$

USA.gov is the U.S. government's official web portal to all federal, state and local government web resources and services.